Tracking 19717 objects as of 25-Jun-2019
HD Live streaming from Space Station
objects crossing your sky now

TANSEI 3 DEB

Track TANSEI 3 DEB now!
10-day predictions


NORAD ID: 9982
Int'l Code: 1977-012F
Perigee: 785.3 km
Apogee: 3,760.3 km
Inclination: 65.9 °
Period: 133.3 minutes
Semi major axis: 8643 km
RCS: 0.0721 m2 (small)
Launch date: February 19, 1977
Source: Japan (JPN)
Launch site: KAGOSHIMA SPACE CENTER UNIVERSITY OF TOKYO (KSCUT)

Note: This is SATELLITE DEBRIS
aabbcc
Your satellite tracking list
Your tracking list is empty




NASA's NSSDC Master Catalog

Two Line Element Set (TLE):
1  9982U 77012F   19174.42579297  .00000090  00000-0  32600-3 0  9995
2  9982  65.9025 268.8568 1720896 314.2242  32.9308 10.80309771670915
Source of the keplerian elements: AFSPC